Run Index — Flame Fatales 2021

← Summer Games Done Quick 2021 Online
Event List
Awesome Games Done Quick 2022 Online →
Name Players Description Start Time End Time Bid Wars
Pre-Show Explanation Malala Fund 2021-08-15T12:30:00-05:00 2021-08-15T13:02:22-05:00 No
Ape Escape 2 Any% Beuchiism 2021-08-15T13:02:22-05:00 2021-08-15T14:30:36-05:00 No
Pokemon Firered/Leafgreen Any% Sheltiesci 2021-08-15T14:30:36-05:00 2021-08-15T17:01:36-05:00 Yes
Super Mario Maker for the Nintendo 3DS Super Mario Challenge Any% Char_bunny 2021-08-15T17:01:36-05:00 2021-08-15T19:30:36-05:00 Yes
Celeste Custom Maps Quickie Mountain 2 All Chapters Fell 2021-08-15T19:30:36-05:00 2021-08-15T20:15:06-05:00 Yes
Celeste Bny% carrarium 2021-08-15T20:15:06-05:00 2021-08-15T21:16:05-05:00 No
Legend of Mana Faerie Route therpgchick 2021-08-15T21:16:05-05:00 2021-08-15T23:30:00-05:00 Yes
Sleep 100% Tech Crew 2021-08-15T23:30:00-05:00 2021-08-16T12:45:00-05:00 No
Interview - Hannah Xue/Digital Associate Interview Malala Fund 2021-08-16T12:45:00-05:00 2021-08-16T13:06:00-05:00 No
Immortals Fenyx Rising Any% Ailis 2021-08-16T13:06:00-05:00 2021-08-16T16:38:30-05:00 Yes
Phantasy Star Online episode I&II any% Withhelde 2021-08-16T16:38:30-05:00 2021-08-16T17:53:22-05:00 Yes
Record of Lodoss War: Deedlit in Wonder Labyrinth any% no OOB SaberaMesia 2021-08-16T17:53:22-05:00 2021-08-16T18:55:45-05:00 Yes
Ikenfell Any% OOB Bellatrix_Melody 2021-08-16T18:55:45-05:00 2021-08-16T20:37:50-05:00 Yes
Cadence of Hyrule All Instruments (NMG) Kailaria 2021-08-16T20:37:50-05:00 2021-08-16T21:51:18-05:00 Yes
Crypt of the NecroDancer Aria Hard Wrong Music rp2knight 2021-08-16T21:51:18-05:00 2021-08-16T22:30:00-05:00 Yes
Sleep low% Tech Crew 2021-08-16T22:30:00-05:00 2021-08-17T12:45:00-05:00 No
Interview - Anubhuti/India Champion Representitive Information Malala Fund 2021-08-17T12:45:00-05:00 2021-08-17T13:00:00-05:00 No
Cat Quest Any% Aalaizah 2021-08-17T13:00:00-05:00 2021-08-17T13:52:00-05:00 No
Disney's 102 Dalmations: Puppies to the Rescue All Puppies TaintedTali 2021-08-17T13:52:00-05:00 2021-08-17T15:04:00-05:00 Yes
Croc: Legend of the Gobbos Any% Beuchiism 2021-08-17T15:04:00-05:00 2021-08-17T16:16:00-05:00 No
Ganbare! Daiku no Gen-san Any% AirAngel 2021-08-17T16:16:00-05:00 2021-08-17T16:48:00-05:00 No
Super Meat Boy Any% Bree12am 2021-08-17T16:48:00-05:00 2021-08-17T17:21:00-05:00 No
Xenoblade Chronicles: Future Connected Any% - Casual Mode AeonFrodo 2021-08-17T17:21:00-05:00 2021-08-17T18:08:00-05:00 Yes
Monolith Normal F5 (Null, Mild) Kailaria 2021-08-17T18:08:00-05:00 2021-08-17T18:40:00-05:00 Yes
Yu-Gi-Oh! Forbidden Memories 15 Card Mod Showcase Skybilz 2021-08-17T18:40:00-05:00 2021-08-17T21:40:00-05:00 No
Sleep All Items Tech Crew 2021-08-17T21:40:00-05:00 2021-08-18T12:45:00-05:00 No
Interview - Crystal/Nigerian Representative Number 3 Malala Fund 2021-08-18T12:45:00-05:00 2021-08-18T13:03:00-05:00 No
Sonic 3 & Knuckles Knuckles - All Emeralds Glitchless Ailis 2021-08-18T13:03:00-05:00 2021-08-18T14:16:00-05:00 Yes
Stardew Valley Level 50 Mines 1-player Glitchless Kinda Nerdy Housewife 2021-08-18T14:16:00-05:00 2021-08-18T15:11:00-05:00 Yes
Donut County Beat the Game Aalaizah 2021-08-18T15:11:00-05:00 2021-08-18T16:10:00-05:00 No
Kao the Kangaroo Round 2 Any% rythin 2021-08-18T16:10:00-05:00 2021-08-18T17:23:00-05:00 No
Dragon Audit Any% Lisaroxroxrox 2021-08-18T17:23:00-05:00 2021-08-18T18:09:00-05:00 Yes
Final Fantasy Any% leggystarscream 2021-08-18T18:09:00-05:00 2021-08-18T19:56:00-05:00 Yes
Ninja Gaiden Any% xChristine 2021-08-18T19:56:00-05:00 2021-08-18T20:20:00-05:00 No
Silent Hill 2 Normal/Normal cynOmatic 2021-08-18T20:20:00-05:00 2021-08-18T21:32:39-05:00 Yes
Bayonetta 2 Any% Hard Galasrinie 2021-08-18T21:32:39-05:00 2021-08-18T23:18:00-05:00 No
Sleep All Dungeons Tech Crew 2021-08-18T23:18:00-05:00 2021-08-19T12:45:51-05:00 No
Interview - Maira/Brazil Representative Malala Fund 2021-08-19T12:45:51-05:00 2021-08-19T13:02:51-05:00 No
The Legend of Zelda: Link's Awakening DX Any% No WW/OoB astronumous 2021-08-19T13:02:51-05:00 2021-08-19T14:15:53-05:00 No
Sonic 1 (2013) Tails Beat The Game flying fox 2021-08-19T14:15:53-05:00 2021-08-19T14:47:02-05:00 No
Sonic 2 Community's Cut Tails Glitchless - Good Ending flying fox 2021-08-19T14:47:02-05:00 2021-08-19T15:39:36-05:00 Yes
Sonic Adventure DX: Director's Cut Big the Cat Risuruuu 2021-08-19T15:39:36-05:00 2021-08-19T15:53:17-05:00 Yes
Sonic Adventure DX: Director's Cut Gamma's Story Risuruuu 2021-08-19T15:53:17-05:00 2021-08-19T16:10:38-05:00 No
Sonic Adventure DX: Director's Cut Amy's Story Risuruuu 2021-08-19T16:10:38-05:00 2021-08-19T16:39:38-05:00 No
Axiom Verge any% NMG SaberaMesia 2021-08-19T16:39:38-05:00 2021-08-19T17:38:38-05:00 No
Final Fantasy VII Remake: Intergrade Any% - NG+ Easy ItzUrGrlC 2021-08-19T17:38:38-05:00 2021-08-19T22:20:38-05:00 Yes
Sleep NG+NMG No OOB Tech Crew 2021-08-19T22:20:38-05:00 2021-08-20T13:03:38-05:00 No
Mail Mole Any% headstrong1290 2021-08-20T13:03:38-05:00 2021-08-20T14:17:38-05:00 No
Warframe Speedrun showcase Megami_infini 2021-08-20T14:17:38-05:00 2021-08-20T14:47:38-05:00 No
The Pathless All Bosses SableDragonRook 2021-08-20T14:47:38-05:00 2021-08-20T16:51:38-05:00 Yes
Mom Hid My Game! Any% Asuka424 2021-08-20T16:51:38-05:00 2021-08-20T17:20:38-05:00 Yes
Bishoujo Senshi Sailor Moon R Chibi% - Normal AirAngel 2021-08-20T17:20:38-05:00 2021-08-20T18:00:38-05:00 No
Candy Box 2 any% frozenflygone 2021-08-20T18:00:38-05:00 2021-08-20T18:27:38-05:00 No
Kamiko 100% - Uzume AirAngel 2021-08-20T18:27:38-05:00 2021-08-20T19:07:38-05:00 Yes
Tetris Effect: Connected Journey - Expert Kirby703 2021-08-20T19:07:38-05:00 2021-08-20T21:09:57-05:00 Yes
New Pokemon Snap Any% spicybunzzz 2021-08-20T21:09:57-05:00 2021-08-20T23:58:47-05:00 No
Sleep any% Tech Crew 2021-08-20T23:58:47-05:00 2021-08-21T13:00:47-05:00 No
Fire Emblem: Three Houses Crimson Flower - New Game AeonFrodo 2021-08-21T13:00:47-05:00 2021-08-21T14:58:14-05:00 Yes
Kirby's Dream Land any% KiwamiZX 2021-08-21T14:58:14-05:00 2021-08-21T15:21:04-05:00 No
Final Fantasy IV Paladin% spoonee 2021-08-21T15:21:04-05:00 2021-08-21T16:54:19-05:00 No
VVVVVV No Out Of Bounds euni, frozenflygone 2021-08-21T16:54:19-05:00 2021-08-21T17:36:24-05:00 Yes
Celeste Custom Maps Glyph All A-Sides frozenflygone 2021-08-21T17:36:24-05:00 2021-08-21T18:37:52-05:00 Yes
Super Metroid Any% FreyasSpirit 2021-08-21T18:37:52-05:00 2021-08-21T20:06:10-05:00 Yes
Pokémon: Let's Go, Eevee! Any% headstrong1290 2021-08-21T20:06:10-05:00 2021-08-21T23:21:30-05:00 Yes
Finale APPRECIATION Tech Crew 2021-08-21T23:21:30-05:00 2021-08-21T23:27:30-05:00 No

Back to Main Index

Running on Django with Python
Python code by UraniumAnchor, SMK, and jdeng
CSS by Cool Matty